Powrót do katalogu

COSMOS 2251 DEB

AktywnyLEO
NORAD 40802·DEBRIS·🇷🇺 Russia

Wystrzelony Jun 16, 1993 z Plesetsk Cosmodrome

Loading…

Następne Przeloty (najbliższe 24 godziny)

TLE

ŚwieżeSource: Space-Track

Epoka: Sep 14, 2026, 11:17 UTC

1 40802U 93036BWF 26257.47044543  .00001937  00000-0  25432-3 0  9997
2 40802  74.0413 330.9442 0060643 356.0409   4.0278 14.79763016684852

Śledź COSMOS 2251 DEB w czasie rzeczywistym z AllMySat

Download on the App Store